#timestamp,LO_Frequency,Hit,StdDev 
1581001515.4,286046999.9,P
1581001535.2,286047002.5,P
1581001555.0,286047004.0,N
1581001555.9,286047004.0,N
1581001575.8,286047003.6,N
1581001595.6,286047003.8,N
1581001615.5,286047004.3,N
1581001635.3,286047001.5,N
1581001655.1,286047001.7,N
1581001675.9,286047001.3,N
1581001695.7,286047002.2,N
1581001715.5,286047004.3,N
1581001735.4,286047003.1,N
1581001755.2,286047003.5,N
1581001775.1,286047003.3,N
1581001776.0,286047003.3,N
1581001795.8,286047005.1,Y
1581001815.6,286047001.5,P
1581001835.5,286047003.9,P
1581001855.3,286047003.6,P
1581001875.1,286047004.4,Y
1581001895.9,286046998.1,P
1581001915.7,286046998.5,N
1581001935.6,286046999.0,N
1581001955.4,286046998.4,N
1581001975.2,286047000.6,N
1581001995.1,286047011.9,Y
1581001996.0,286047000.6,P
1581002015.8,286047001.0,N
1581002035.7,286046998.8,N
1581002055.5,286046999.5,N
1581002075.3,286046996.7,Y
1581002095.2,286046997.0,P
1581002115.9,286046996.8,N
1581002135.7,286046995.1,P
1581002155.6,286046995.4,N
1581002175.4,286046995.0,N
1581002195.2,286046995.6,N
1581002215.1,286046993.4,Y
1581002216.0,286046993.4,P
1581002235.8,286046999.6,N
1581002255.7,286046999.3,N
1581002275.5,286046997.7,N
1581002295.3,286046999.3,N
1581002315.2,286046998.7,N
1581002335.0,286046999.0,N
1581002335.9,286046999.0,N
1581002355.8,286046998.8,N
1581002375.6,286046999.6,N
1581002395.4,286046999.4,N
1581002415.3,286046999.3,N
1581002435.1,286046998.9,N
1581002455.8,286046998.9,N
1581002475.7,286047001.2,N
1581002495.5,286047000.1,N
1581002515.3,286047000.1,N
1581002535.2,286047002.4,N
1581002555.0,286046999.8,N
1581002555.9,286046999.8,N
1581002575.8,286047000.6,N
1581002595.6,286046998.3,N
1581002615.4,286047000.8,N
1581002635.3,286046998.5,N
1581002655.1,286046998.3,N
1581002675.8,286046999.1,N
1581002695.7,286046996.7,N
1581002715.5,286046999.1,N
1581002735.4,286046997.2,N
1581002755.2,286046997.5,N
1581002775.0,286046997.9,N
1581002775.9,286046997.9,N
1581002795.8,286046995.0,Y
1581002815.6,286046997.7,P
1581002835.5,286046996.6,P
1581002855.3,286046996.6,P
1581002875.1,286046999.2,N
1581002895.9,286046999.2,N
1581002915.7,286046997.9,N
1581002935.5,286046995.4,Y
1581002955.4,286046999.1,P
1581002975.2,286046998.8,N
1581002995.1,286047000.8,N
1581002996.0,286047000.8,N
1581003015.8,286047000.8,N
1581003035.6,286046998.8,N
1581003055.5,286046998.8,N
1581003075.3,286046998.1,N
1581003095.1,286046998.4,N
1581003115.9,286046998.2,N
1581003135.7,286046998.8,N
1581003155.5,286046998.6,N
1581003175.4,286046998.8,N
1581003195.2,286046998.7,N
1581003215.1,286046996.9,Y
1581003216.0,286046996.9,P
1581003235.8,286046998.9,N
1581003255.7,286046999.1,N
1581003275.5,286046999.0,N
1581003295.3,286046999.5,N
1581003315.2,286046996.6,Y
1581003335.0,286046998.6,P
1581003335.9,286046998.6,P
1581003355.7,286046998.4,P
1581003375.6,286046999.5,Y
1581003395.4,286047000.5,P
1581003415.3,286047000.0,N
1581003435.1,286046998.1,N
1581003455.8,286046998.5,N
1581003475.7,286046998.6,N
1581003495.5,286047000.7,N
1581003515.3,286047000.1,N
1581003535.2,286047001.4,N
1581003555.0,286047001.7,N
1581003555.9,286047001.7,N
1581003575.8,286047004.4,Y
1581003595.6,286047002.1,P
1581003615.4,286047001.9,N
1581003635.3,286046999.7,N
1581003655.1,286046999.8,N
1581003675.9,286047002.4,N
1581003695.7,286047000.8,N
1581003715.5,286047000.3,N
1581003735.4,286047000.9,N
1581003755.2,286046998.7,N
1581003775.0,286047000.7,N
1581003775.9,286047000.7,N
1581003795.8,286047000.8,N
1581003815.6,286047001.0,N
1581003835.5,286047001.0,N
1581003855.3,286046998.6,N
1581003875.1,286046998.6,N
1581003895.9,286046998.1,N
1581003915.7,286046998.6,N
1581003935.5,286046998.3,N
1581003955.4,286047000.9,N
1581003975.2,286047001.1,N
1581003995.0,286046998.1,N
1581003996.0,286046998.1,N
1581004015.8,286046999.9,N
1581004035.6,286047002.7,N
1581004055.5,286047001.9,N
1581004075.3,286047004.0,N
1581004095.1,286047001.8,N
1581004115.9,286047001.5,N
1581004135.7,286047001.4,N
1581004155.6,286047003.9,N
1581004175.4,286047003.2,N
1581004195.2,286047003.7,N
1581004215.1,286047003.9,N
1581004216.0,286047003.9,N
1581004235